RH
97 83 86 100 100 98 98 100 100 65 47 76 45 85 72 40 27 21 17 19 18 14 12 14 15 13 13 14 14 12 15 27 86 92 100 96 74 62 61 84 96 88 100 95 95
80 86 100 100 100 100 100 90 75 63 37 58 42 98 98 50 31 25 26 20 20 19 15 13 14 15 14 14 14 14 12 14 33 76 96 100 100 80 66 73 80 100 100 100 100
59 93 94 99 99 87 75 75 91 66 65 37 78 100 100 69 38 34 28 23 21 23 17 15 14 15 15 14 14 14 14 12 12 23 68 100 100 100 85 76 66 84 94 100 100
58 99 100 100 100 100 100 100 100 99 83 39 47 64 100 85 50 34 30 27 23 26 24 18 15 15 15 16 14 14 13 13 11 12 27 70 99 94 72 76 86 67 94 100 100
100 75 63 66 88 88 77 82 76 65 50 47 45 47 75 99 57 45 39 32 27 28 28 25 21 17 15 15 14 13 12 12 13 12 17 75 76 89 92 96 93 100 92 100 100
100 100 100 97 80 100 90 63 58 44 32 61 64 68 92 100 72 55 57 33 33 29 31 26 26 25 21 17 15 13 11 10 11 14 28 40 100 100 90 99 87 100 100 88 98
85 100 100 100 100 99 69 70 64 59 47 40 85 100 99 100 94 77 76 41 30 33 34 28 26 23 22 18 16 14 12 10 9 14 53 100 75 41 42 64 96 80 95 86 72
31 38 81 99 100 100 100 100 100 92 71 61 44 73 64 100 80 99 100 70 34 36 34 35 32 29 21 20 18 15 12 11 10 12 16 23 33 12 20 32 31 100 99 96 79
48 40 39 36 50 75 83 87 85 100 100 69 35 41 56 76 72 49 100 88 49 38 36 34 34 32 28 24 22 16 15 13 12 12 13 15 16 17 20 50 38 45 100 100 97
46 47 51 44 36 33 34 31 37 64 72 100 98 60 38 53 48 87 100 100 63 50 38 39 34 38 31 27 23 18 16 16 13 14 14 14 16 16 49 29 48 65 85 97 100
50 49 51 50 50 45 43 41 35 34 29 62 100 100 61 40 53 73 83 100 100 75 40 35 46 48 33 28 26 23 20 17 16 15 15 16 15 17 18 21 18 35 74 66 96
62 58 59 58 50 48 45 39 43 35 33 27 42 99 100 49 38 52 80 100 100 72 38 42 63 40 33 33 27 26 25 21 18 18 20 21 18 18 19 64 58 55 75 79 60
61 64 75 73 65 59 54 47 44 47 49 40 31 30 51 79 90 40 63 77 100 83 56 45 47 40 43 36 31 25 24 25 27 23 24 23 20 20 20 31 98 100 100 90 86
59 60 65 78 93 69 68 61 55 50 50 61 51 45 31 30 91 98 96 84 100 100 69 44 40 64 54 39 37 30 24 25 31 36 67 42 23 19 18 18 18 77 100 100 82
42 55 60 58 68 75 75 72 64 54 49 79 58 52 42 33 40 83 100 77 100 100 72 92 48 59 55 58 43 35 29 26 30 32 47 44 45 33 18 18 18 38 100 100 100
32 39 48 56 54 54 60 60 65 62 55 55 65 60 61 44 44 62 100 100 100 100 88 86 59 62 96 70 58 39 37 28 28 30 35 98 82 61 26 19 18 18 20 76 100
23 30 36 40 45 54 57 63 57 58 58 52 63 81 76 64 48 72 97 100 100 100 100 100 76 94 94 71 54 48 42 33 24 30 29 45 62 90 54 27 21 19 18 19 40
22 24 28 30 35 42 46 55 60 61 63 51 59 76 72 78 62 45 99 100 100 100 100 94 60 80 100 95 60 47 45 35 30 26 30 25 37 100 94 65 38 25 22 22 21
19 20 23 27 30 33 38 42 52 52 56 55 60 78 73 69 81 68 60 100 100 100 100 100 96 100 98 100 65 71 57 42 32 31 30 27 25 37 71 88 69 37 28 25 24
16 16 18 21 26 29 33 41 53 57 67 60 70 80 85 82 79 87 76 96 100 100 100 100 94 100 85 100 59 57 79 46 47 32 30 33 29 27 30 88 94 69 53 35 27
15 16 18 18 21 28 32 39 52 60 64 66 70 79 98 95 90 76 100 100 100 100 100 100 100 100 77 66 65 74 72 64 65 57 68 34 37 28 27 34 88 95 69 62 46
17 18 20 20 20 24 32 39 46 52 58 71 74 80 96 97 98 82 86 100 100 100 100 100 100 100 91 100 100 68 70 57 54 100 89 50 43 30 33 35 43 60 99 98 79
20 21 22 22 22 24 28 40 51 51 57 65 81 81 90 98 100 94 88 98 100 100 95 97 92 92 94 74 63 53 76 68 68 46 94 96 53 41 32 44 45 39 41 62 89
22 23 24 26 25 25 29 41 57 54 59 71 87 86 80 94 100 100 96 95 100 100 100 100 81 82 91 100 99 100 100 81 65 78 100 100 62 43 36 38 47 46 44 42 41
25 26 28 28 28 26 28 35 57 61 60 74 86 78 79 85 100 100 100 99 97 100 100 87 76 82 100 100 93 77 94 63 58 58 47 85 71 44 44 40 47 48 44 41 38
27 27 27 29 29 30 30 30 35 49 51 66 88 87 85 90 100 100 100 100 86 97 100 100 86 86 82 100 100 80 90 77 78 68 53 70 99 90 57 40 56 57 50 43 38
27 26 27 26 30 32 30 30 32 45 53 57 83 96 96 95 85 100 95 100 100 87 94 100 100 79 79 99 100 97 74 81 77 82 93 70 100 86 74 51 43 47 58 53 46
Wind_Speed
58 61 54 55 54 50 44 43 44 47 45 40 40 37 31 32 35 35 32 35 41 45 48 47 45 44 42 45 48 53 69 75 78 75 68 66 64 63 61 62 60 58 49 44 41
66 62 61 59 51 52 49 51 52 50 50 44 39 36 36 30 31 32 33 33 37 43 45 48 47 45 44 42 46 51 58 68 76 79 71 68 69 66 67 67 61 61 57 50 50
64 61 62 61 58 58 56 54 53 54 51 48 42 36 39 34 28 28 33 34 34 40 45 46 46 47 49 45 46 48 53 57 68 73 70 73 75 74 73 71 70 66 65 58 53
63 63 60 60 56 54 56 53 54 52 49 49 48 39 41 38 31 31 30 32 34 37 40 45 46 49 52 53 50 46 46 51 54 62 72 74 77 77 77 75 72 70 65 66 65
60 64 66 64 62 64 63 63 61 57 55 53 50 44 41 41 33 31 31 31 33 36 38 39 44 47 49 53 51 48 48 47 54 56 66 74 77 79 78 78 81 77 76 69 67
63 62 59 64 64 62 64 65 63 60 53 50 48 46 41 47 37 36 36 33 33 34 38 39 40 44 48 51 47 47 52 51 51 62 65 68 72 77 81 82 83 81 80 78 75
71 68 67 66 62 64 67 63 63 61 56 53 48 46 44 41 43 40 41 35 35 33 37 37 38 41 45 46 43 44 47 53 58 64 73 79 78 78 81 85 82 85 84 82 79
64 70 72 73 74 72 69 62 61 62 62 58 56 49 47 46 46 45 44 40 35 36 34 36 36 36 40 41 41 42 46 53 59 65 75 80 79 73 77 81 84 82 84 83 82
67 67 68 72 74 76 78 77 76 71 62 63 55 56 57 51 53 45 50 41 37 36 36 36 36 35 34 37 39 38 40 49 53 60 70 79 79 76 73 77 77 80 79 78 77
69 70 70 71 72 72 72 74 74 76 72 70 63 63 58 55 53 51 48 48 44 41 40 35 38 36 37 35 36 35 36 38 47 55 63 76 80 79 80 74 76 77 79 77 80
70 72 72 73 73 72 71 71 73 70 70 76 73 70 63 58 58 57 50 51 48 43 41 39 34 40 40 37 33 34 36 37 42 47 54 63 75 81 81 80 74 72 79 77 75
72 73 76 75 74 75 74 72 72 71 71 71 75 76 68 65 62 60 54 52 53 48 40 40 42 40 36 36 34 31 33 35 37 39 43 57 67 79 78 79 74 69 71 70 67
76 76 76 75 75 73 73 71 70 73 70 69 69 72 80 71 69 63 60 57 55 50 44 45 44 36 36 38 34 30 29 33 37 37 38 46 60 70 79 82 83 86 85 80 75
81 81 79 77 77 76 69 71 73 70 73 70 67 64 67 68 68 72 65 61 56 54 48 48 42 38 37 38 36 33 28 29 31 35 38 44 51 64 72 81 81 83 86 86 80
83 86 84 80 79 78 77 80 75 73 70 71 68 66 69 61 67 71 71 61 60 59 50 53 45 43 37 36 37 35 28 30 33 34 39 35 36 48 57 67 77 84 89 89 87
74 81 86 86 82 78 82 81 77 77 65 66 66 64 66 63 63 68 69 66 64 58 52 53 48 44 43 40 38 37 31 30 32 33 32 42 39 35 42 60 67 77 85 93 94
66 73 78 85 86 86 87 86 82 74 70 70 66 66 63 61 65 66 68 66 63 57 53 56 49 48 45 43 38 39 32 31 30 30 31 40 42 40 37 41 54 67 76 83 87
59 65 70 73 78 87 90 90 84 78 79 75 73 69 63 61 65 65 67 67 63 59 62 59 53 49 47 45 40 37 32 32 31 31 31 28 30 46 42 39 38 51 61 74 77
52 56 61 65 71 75 78 79 83 84 84 78 75 71 67 64 66 64 64 67 64 64 60 60 54 54 49 46 40 37 34 35 28 27 29 28 32 40 45 45 39 39 51 62 67
49 51 54 58 64 71 73 70 73 76 79 77 74 73 71 67 69 64 62 62 65 65 66 64 61 58 56 49 43 37 39 29 28 25 24 23 26 32 36 43 45 40 40 47 61
47 48 51 54 58 63 66 70 75 79 77 77 71 72 74 74 71 68 64 64 65 65 65 66 63 61 61 51 44 40 36 32 30 26 21 21 22 26 32 37 41 45 42 41 41
45 44 46 51 55 58 62 67 76 81 78 78 74 74 76 73 69 70 65 65 69 70 66 66 64 62 58 53 48 45 40 35 30 30 26 23 25 23 27 31 35 40 45 47 45
41 41 43 47 51 55 58 64 70 78 78 77 76 74 73 74 73 71 72 69 69 73 69 69 64 61 61 56 50 47 42 38 34 32 27 27 25 24 26 30 33 35 37 40 44
38 38 41 44 47 51 55 62 69 75 77 77 77 76 74 79 79 74 70 74 70 71 73 73 66 61 56 55 54 52 52 46 40 33 32 31 25 24 24 28 32 31 31 34 35
37 37 40 42 45 49 54 61 69 77 77 78 80 77 78 81 83 79 75 73 71 68 73 73 65 61 59 60 59 54 54 47 40 39 34 33 26 22 23 23 28 32 33 33 33
35 37 38 41 42 48 54 60 64 72 75 79 82 80 79 83 86 79 77 76 73 72 70 70 68 64 61 63 64 55 54 48 43 42 40 31 29 28 22 24 29 32 32 32 32
35 37 39 41 44 50 53 56 60 66 71 76 81 83 83 85 86 86 80 78 75 71 70 70 66 69 67 66 68 62 51 50 48 45 44 35 40 28 27 27 26 28 30 31 30
Wind_Direction
260 257 260 254 260 264 259 263 259 261 261 269 268 265 261 269 277 269 265 258 245 244 241 239 239 242 239 233 235 233 229 226 231 231 226 227 225 225 223 221 226 226 231 233 240
262 257 252 259 262 260 252 254 253 258 259 267 265 267 260 260 268 268 269 265 253 244 241 238 235 236 235 234 231 232 230 229 229 231 226 227 227 223 225 223 224 229 232 235 236
263 259 257 257 258 261 260 257 256 258 255 258 261 267 265 255 258 264 267 268 259 247 241 240 238 236 234 232 232 232 233 236 233 228 226 226 227 226 223 223 222 225 229 232 238
256 253 253 255 255 254 254 254 257 259 257 260 257 257 266 251 250 261 269 269 266 251 245 241 241 239 238 236 234 237 238 239 242 235 225 227 228 228 227 226 226 225 228 231 238
256 260 256 257 257 253 253 255 258 259 261 261 254 252 262 248 249 257 268 271 270 256 248 245 243 242 240 242 240 241 244 240 241 239 231 225 229 229 229 229 227 233 227 229 236
247 250 252 255 253 251 256 256 258 259 258 252 246 249 258 253 250 257 265 268 270 262 248 245 245 244 243 244 243 243 243 238 237 237 232 227 227 232 231 230 231 233 235 231 234
252 250 247 247 249 256 258 258 257 256 255 251 245 247 253 253 252 255 258 259 268 265 252 246 245 245 245 243 244 242 245 239 234 231 229 227 229 231 232 230 230 231 234 237 237
254 254 252 249 252 250 247 247 252 254 256 254 248 247 252 250 253 254 253 252 259 264 258 249 249 251 248 247 245 244 244 242 236 230 225 227 230 231 229 231 231 226 233 239 241
253 252 253 251 251 251 253 252 252 251 254 258 251 248 250 248 248 246 253 249 256 266 259 253 249 249 250 248 245 245 244 243 239 233 230 227 228 234 232 232 233 232 229 232 237
255 252 252 251 251 251 252 252 253 251 249 248 251 250 248 248 246 250 252 249 254 259 260 255 249 251 250 246 249 251 253 250 243 237 232 229 226 226 231 230 233 233 233 230 230
257 253 252 250 250 250 251 253 253 249 249 244 242 247 249 245 244 249 250 248 249 249 257 255 257 253 249 251 254 256 256 252 246 242 238 234 231 231 231 231 230 232 233 233 235
255 253 252 252 252 250 250 249 248 249 248 248 244 243 244 246 244 245 247 248 247 247 258 253 255 253 247 249 248 257 257 256 254 247 240 234 233 231 231 232 237 238 236 235 236
255 252 250 250 250 250 249 248 246 246 245 245 244 247 244 244 244 243 246 248 244 245 246 249 252 259 251 245 252 251 254 255 253 249 246 240 231 232 229 228 231 232 237 240 241
258 254 249 248 247 248 247 247 246 244 243 242 243 242 244 241 237 238 238 241 240 240 242 249 252 256 256 246 248 254 259 255 263 248 244 241 237 234 233 229 229 231 233 239 240
257 254 252 248 244 246 246 246 245 245 243 240 240 239 244 243 238 238 235 236 237 239 240 244 247 252 256 256 248 251 259 267 250 256 250 247 246 242 235 234 231 228 231 232 238
255 251 249 248 246 246 245 244 243 243 242 243 242 239 241 238 238 235 233 233 234 238 239 244 245 250 250 255 249 248 253 264 261 252 256 250 249 252 237 231 231 231 231 233 236
255 250 247 247 247 245 245 246 245 244 244 244 239 237 235 236 234 231 230 229 232 232 234 236 237 241 247 253 249 246 249 255 265 254 243 241 244 247 252 240 234 233 233 232 236
254 250 248 246 245 243 244 244 244 243 244 241 235 233 233 231 235 231 228 229 227 230 231 233 236 241 241 249 248 244 250 253 258 259 252 252 245 242 248 251 246 238 235 234 237
255 250 247 244 242 241 240 239 240 240 241 240 233 231 232 230 229 231 227 225 226 223 225 229 229 236 238 245 248 244 245 248 260 262 255 243 233 232 237 244 246 242 239 237 237
255 250 246 243 240 239 237 234 233 233 234 234 230 228 229 230 228 224 228 225 226 226 226 227 228 231 232 235 242 242 242 250 253 261 261 254 248 246 240 235 238 238 237 238 240
256 249 246 242 239 237 234 230 228 230 229 232 229 225 224 226 225 218 221 225 227 225 227 227 226 227 234 237 240 242 244 240 249 261 276 261 253 246 243 240 239 241 243 242 241
256 249 244 240 237 235 231 228 227 227 226 227 226 221 219 223 223 220 219 225 229 229 225 226 227 230 233 229 231 239 242 241 245 254 262 269 261 252 244 242 237 239 240 241 245
255 249 242 239 235 233 230 227 226 227 224 226 225 220 216 218 220 222 216 223 227 230 229 229 225 228 233 235 233 240 243 242 238 246 252 262 266 261 251 243 245 240 240 242 243
253 247 242 238 235 231 228 226 224 226 224 223 223 222 217 214 217 220 219 222 224 230 228 230 228 228 231 233 229 232 238 234 234 236 247 254 264 263 258 246 241 242 242 243 245
252 244 241 238 234 231 227 224 221 224 221 220 223 222 219 214 216 218 218 220 225 229 232 229 227 226 225 232 234 229 235 238 235 236 245 248 261 266 260 260 249 242 237 235 238
248 246 242 238 235 233 228 225 224 225 222 220 220 222 220 214 214 217 217 221 222 224 228 232 228 226 224 229 234 230 232 233 231 238 244 247 250 249 251 252 244 242 242 241 241
250 246 241 237 234 232 229 228 224 223 223 221 216 219 220 217 214 217 216 218 222 224 227 229 230 228 226 226 233 233 232 232 230 234 237 239 242 248 260 254 260 257 250 245 245